World > North America > United States > New York > Sacandaga Park

Hourly Sacandaga Park, NY Regional Weather

Feedback E-mail the Weather

Quick WX

Sacandaga Park, NY Weather Maps

°F °C°F °C
Sacandaga Park Weather Map
UTC Time: 8/15/2022, 16:12
Your Time:

Sacandaga Park, NY Regional Weather

Expires:202208151700;;086070
ASUS41 KALY 151610
RWRALY

NEW YORK STATE HOURLY WEATHER ROUNDUP
NATIONAL WEATHER SERVICE ALBANY NY
1200 PM EDT MON AUG 15 2022

NOTE: "FAIR" INDICATES FEW OR NO CLOUDS BELOW 12,000 FEET WITH NO
SIGNIFICANT WEATHER AND/OR NO OBSTRUCTIONS TO VISIBILITY.


NYZ032-033-038>043-046>054-057>066-NYZ062>081-082-084-151700-
EAST

  
CITY           SKY/WX    TMP DP  RH WIND       PRES   REMARKS
ALBANY         MOSUNNY   79  57  46 VRB3      30.01F                  
GLENS FALLS    SUNNY     76  55  48 E3        30.02F                  
POUGHKEEPSIE   SUNNY     83  55  38 VRB3      29.97F                  
NEWBURGH       MOSUNNY   81  50  34 VRB5      29.99F                  
MONTGOMERY     SUNNY     81  53  37 SE5       29.98F                  
WHITE PLAINS   MOSUNNY   78  60  53 E8        30.00F                  
ISLIP          CLOUDY    77  59  53 SE10      29.99F                  
NEW YORK CITY  PTSUNNY   79  52  38 NE9       29.98F                  
CENTRAL PARK   MOSUNNY   81  55  40 VRB6      30.01F                  
$$


SKY/WX - Weather  TMP - Temperature  DP - Dew Point  RH - Humidity
WIND - Wind Direction/Speed PRES - Barometric Pressure VSB - Visibility
WCI - Wind Chill Index E13G22 Wind - East Wind 13 mph/Gusts of 22 mph

Trending Headlines

Sacandaga Park Radar Loop



Sacandaga Park Quick Facts


National Two Day Weather Forecast


E-mail the Sacandaga Park Weather Forecast

Voice your opinion or tell us about page issues...